Location: Bacharowice
(49.9333°N, 19.5833°E)
Time: 09:19:56
(UTC+00:00)

Cosmos 1933 Rocket - Pass Details

Date: 11 May 2021
Orbit: 607 x 630 km, 82.5° (Epoch: 21 June)

Event Time Altitude Azimuth Distance (km) Brightness Sun altitude
Rises 19:21:32 0° 355° (N) 2,881 7.8 -9.4°
Reaches altitude 10° 19:23:53 10° 3° (N) 1,971 6.7 -9.6°
Maximum altitude 19:27:59 40° 73° (ENE) 908 4.2 -10.1°
Enters shadow 19:31:18 15° 139° (SE) 1,677 5.1 -10.5°
